Location: Newark
(42.7133°N, 87.7910°W)
Time: 14:25:41
(UTC+00:00)

ISS - Visible Passes

Search period start: 23 August 2019 00:00
Search period end: 02 September 2019 00:00
Orbit: 410 x 420 km, 51.6° (Epoch: 23 August)

Date Brightness Start Highest point End Pass type
(mag) Time Alt. Az. Time Alt. Az. Time Alt. Az.
25 Aug -1.3 10:36:33 10° S 10:38:54 18° SE 10:41:17 10° E visible
26 Aug -0.9 09:49:38 10° SE 09:50:20 10° SE 09:51:03 10° ESE visible
27 Aug -3.0 10:34:34 10° SW 10:37:47 48° SE 10:41:02 10° ENE visible
28 Aug -2.2 09:47:18 17° S 09:49:04 28° SE 09:51:59 10° ENE visible
29 Aug -1.4 09:00:38 16° SE 09:00:38 16° SE 09:02:36 10° E visible
29 Aug -3.6 10:33:31 10° WSW 10:36:48 65° NNW 10:40:08 10° NE visible
30 Aug -3.8 09:46:47 37° SW 09:47:58 76° SE 09:51:18 10° ENE visible
31 Aug -2.4 08:59:59 35° E 08:59:59 35° E 09:02:22 10° ENE visible
31 Aug -2.5 10:32:55 10° W 10:35:58 32° NNW 10:39:01 10° NE visible
01 Sep -0.4 08:13:08 11° E 08:13:08 11° E 08:13:14 10° ENE visible
01 Sep -3.1 09:46:00 33° WNW 09:47:00 45° NNW 09:50:15 10° NE visible
